Regional Weather Roundup
Issued by NWS

Home | Current Version | Previous Version | Graphics & Text | Print | Product List | Glossary On
Versions: 1 2 3 4 5 6 7 8 9 10 11 12 13 14 15 16 17 18 19 20 21 22 23 24 25 26 27 28 29 30 31 32 33 34 35 36 37 38 39 40 41 42 43 44 45 46 47 48 49 50
974
ASUS45 KCYS 271610
RWRWY

WYOMING REGIONAL WEATHER ROUNDUP
NATIONAL WEATHER SERVICE CHEYENNE WY
1000 AM MDT SAT MAY 27 2017

NOTE:  "FAIR" INDICATES FEW OR NO CLOUDS BELOW 12,000 FEET
WITH NO SIGNIFICANT WEATHER AND/OR OBSTRUCTIONS TO VISIBILITY.

WYZ001-271700-
YELLOWSTONE NATIONAL PARK

CITY           SKY/WX    TMP DP  RH WIND       PRES   REMARKS
LK YELLOWSTONE   N/A     38  34  85 E6        30.29R WCI  33
W YELLOWSTONE  NOT AVBL

$$
WYZ002>013-054>058-071-098>099-271700-
NORTHERN WYOMING

CITY           SKY/WX    TMP DP  RH WIND       PRES   REMARKS
JACKSON        MOSUNNY   45  36  70 CALM      30.25R
CODY           FAIR      58  28  32 VRB3      30.16S
GREYBULL       FAIR      55  39  54 E5        30.14S
WORLAND        FAIR      53  41  63 VRB3      30.15R
SHERIDAN       FAIR      61  40  45 N13       30.09S
BUFFALO        FAIR      59  33  37 N20G29    30.11R
GILLETTE       FAIR      58  41  53 NW13      30.08R
HULETT         FAIR      59  36  41 NW3       30.08S
NEWCASTLE      FAIR      55  39  54 N13G23    30.10R

$$
WYZ014>020-022>026-101>103-271700-
CENTRAL WYOMING

CITY           SKY/WX    TMP DP  RH WIND       PRES   REMARKS
BIG PINEY      FAIR      51  29  42 N12       30.22S
PINEDALE       FAIR      46  32  57 E6        30.23R
DUBOIS         FAIR      46  30  53 NW10      30.20S
LANDER         FAIR      53  38  56 VRB5      30.18R
RIVERTON       FAIR      52  35  52 N3        30.18R
CASPER         FAIR      53  37  54 N7        30.15R
DOUGLAS        CLOUDY    50  41  71 N12       30.14R

$$
WYZ021-027>030-104>119-271700-
SOUTHERN WYOMING

CITY           SKY/WX    TMP DP  RH WIND       PRES   REMARKS
EVANSTON       FAIR      44  35  70 VRB3      30.25S
KEMMERER         N/A     45  32  61 SW10      30.25R
FORT BRIDGER   MOSUNNY   50  34  53 W8        30.27R
ROCK SPRINGS   PTSUNNY   45  36  70 VRB3      30.23R
DIXON            N/A     48  40  73 N8G16     30.21S
RAWLINS        PTSUNNY   47  36  65 N9        30.19S
SARATOGA       CLOUDY    45  37  76 N9G23     30.20S
LARAMIE        CLOUDY    42  36  79 NW12      30.16R
CHEYENNE       CLOUDY    44  40  85 N13       30.14R
TORRINGTON     CLOUDY    55  42  61 N14       30.08R
PINE BLUFFS    PTSUNNY   50  41  71 N16       30.11R

$$




USA.gov is the U.S. government's official web portal to all federal, state and local government web resources and services.